Hourly Data Report for October 13, 2013

All times are specified in Local Standard Time (LST). Add 1 hour to adjust for Daylight Saving Time where and when it is observed.

HALL BEACH A
NUNAVUT

68°46'33.000" N
81°14'33.000" W
9.10 m
2402354
71293
YUX

Download Data

Hourly Data (October 2013)
Hourly Data Report for October 13, 2013
Temp Definition
°C
Dew Point Temp Definition
°C
Rel Hum Definition
%
Wind Dir Definition
10's deg

Wind Spd Definition
km/h
Visibility Definition
km
Stn Press Definition
kPa
Hmdx Definition


Wind Chill Definition


Weather Definition


TIME
00:00 Legend Double Dagger 0.1 -1.1 92 35 17 16.1 100.66     LegendNANA
01:00 Legend Double Dagger -0.2 -1.3 92 35 13 16.1 100.68   -4 LegendNANA
02:00 Legend Double Dagger -0.7 -1.7 93 36 15 16.1 100.68   -5 LegendNANA
03:00 Legend Double Dagger -1.1 -1.9 94 1 11 16.1 100.70   -5 LegendNANA
04:00 Legend Double Dagger -1.3 -2.2 94 1 13 16.1 100.67   -6 LegendNANA
05:00 Legend Double Dagger -1.6 -2.4 94 36 13 16.1 100.64   -6 LegendNANA
06:00 Legend Double Dagger -1.9 -2.6 95 1 17 16.1 100.65   -7 LegendNANA
07:00 Legend Double Dagger -1.5 -2.1 96 2 17 16.1 100.61   -7 LegendNANA
08:00 Legend Double Dagger -1.2 -1.6 97 3 18 11.3 100.61   -6 LegendNANA
09:00 Legend Double Dagger -1.2 -1.5 98 2 18 1.0 100.60   -6 LegendNANA
10:00 Legend Double Dagger -1.2 -1.5 98 3 18 0.6 100.54   -6 LegendNANA
11:00
12:00 Legend Double Dagger -1.1 -1.4 98 2 21 1.2 100.47   -7 LegendNANA
13:00 Legend Double Dagger -1.1 -1.4 98 2 22 6.4 100.46   -7 LegendNANA
14:00 Legend Double Dagger -1.0 -1.3 98 3 26 14.5 100.42   -7 LegendNANA
15:00 Legend Double Dagger -1.0 -1.3 98 3 22 16.1 100.40   -7 LegendNANA
16:00 Legend Double Dagger -1.0 -1.3 98 3 22 16.1 100.40   -7 LegendNANA
17:00 Legend Double Dagger -1.0 -1.3 98 3 26 4.8 100.34   -7 LegendNANA
18:00 Legend Double Dagger -1.0 -1.3 98 3 24 2.0 100.34   -7 LegendNANA
19:00 Legend Double Dagger -0.9 -1.2 98 4 26 11.3 100.33   -7 LegendNANA
20:00 Legend Double Dagger -0.8 -1.1 98 3 24 2.4 100.31   -7 LegendNANA
21:00 Legend Double Dagger -0.8 -1.1 98 3 26 1.2 100.26   -7 LegendNANA
22:00                    
23:00                    

Notes on Data Quality.

Legend

  • E = Estimated
  • M = Missing
  • NA = Not Available
  • ‡ = Partner data that is not subject to review by the National Climate Archives
Date modified: